Location: Coed Ely
(51.5661°N, 3.4150°W)
Time: 22:09:52
(UTC+00:00)

ATLAS 2AS CENTAUR R/B - Pass Details

Date: 28 January 2021
Orbit: 947 x 1265 km, 63.7° (Epoch: 13 February)

Event Time Altitude Azimuth Distance (km) Brightness Sun altitude
Rises 17:43:34 0° 271° (W) 4,222 7.4 -7.5°
Reaches altitude 10° 17:46:42 10° 280° (W) 3,246 6.3 -8.0°
Maximum altitude 17:53:52 37° 345° (NNW) 1,837 3.9 -9.1°
Drops below altitude 10° 18:00:46 10° 51° (NE) 3,112 4.6 -10.1°
Enters shadow 18:00:54 - 52° (NE) 3,155 4.6 -10.1°
